GALAXY 15

导读

**GALAXY 15卫星摘要** GALAXY 15(“银河”-15)是国际通信卫星组织(ITSO)所属的地球静止轨道通信卫星,由美国轨道科学公司研发,于2005年10月13日在圭亚那航天中心发射升空。卫星设计寿命15年,载有24路C频段转发器和2路L频段转发器,定点西经133°,主要为北美地区提供视频传输等多媒体通信服务。2010年卫星失控漂移,对其他在轨卫星造成干扰。

基本信息
目录编号:
28884
目录名称:
GALAXY 15
国际标识:
2005-041A
轨道中心:
EARTH
卫星名称:
GALAXY 15
卫星全名:
--
卫星状态:
在轨 (已飞行7592 天)
发射日期:
2005-10-13 UTC
国别 :
(ITSO)
星等 :
--
轨道信息
数据来源 国际轨道数据 AOE轨道数据
星历时间 2026-07-27T18:54:10+0800
11小时前
查看轨道信息
2026-07-26T06:00:00+0800
2天前
查看轨道信息
半长轴 42541.688km 42541.545km
偏心率 0.0015814 0.0015752
轨道倾角 3.638° 3.634°
近地点辐角 137.507° 137.464°
升交点赤经 76.810° 76.828°
平近点角 216.822° 29.152°
近地点 36096.275km 36096.396km
远地点 36230.827km 36230.42km
周期 1455.398分钟 1455.391分钟
每日圈数 0.98942 0.989425
详细信息
使用方式:
暂无
2D轨道图
3D轨道图
轨道高度分析图
轨道倾角分析图
轨道综合分析图
查看轨道综合分析图